Theta_e
311 311 310 308 308 307 307 305 302 298 297 304 305 308 307 309 311 310 309 316 316 315 315 315 315 314 313 313 314 314 315 315 315 316 316 318 318 319
311 308 306 306 304 304 304 304 304 301 298 303 305 305 306 308 312 310 309 314 314 315 316 314 314 313 313 313 312 313 313 313 313 312 313 314 315 316
309 308 305 304 301 300 301 301 302 302 299 302 304 305 304 305 307 309 311 311 311 315 315 314 313 312 313 312 311 311 311 311 310 311 311 312 313 315
308 305 304 305 298 297 298 299 300 301 301 298 301 302 302 305 305 306 310 312 310 315 313 312 312 311 311 311 309 309 308 308 307 308 309 311 312 316
306 303 301 298 296 295 296 297 299 302 302 300 300 302 303 304 305 307 308 309 312 313 311 311 311 312 311 310 309 308 306 305 304 306 306 309 312 316
305 303 301 298 296 296 298 297 298 298 300 300 299 302 306 309 308 306 305 308 307 309 310 309 310 311 310 310 309 309 305 304 303 304 304 305 306 310
304 303 299 301 304 302 300 299 298 298 299 299 298 300 303 306 306 308 304 307 306 308 306 305 306 306 308 309 308 308 305 304 303 303 304 302 302 304
299 299 298 298 298 302 305 307 304 299 298 297 296 298 300 305 308 306 305 305 302 310 305 303 307 306 307 307 306 305 304 303 302 302 303 302 301 302
295 294 295 296 295 295 299 302 302 304 306 299 297 298 300 303 307 304 303 303 303 307 305 302 306 305 307 307 305 305 303 302 301 301 301 301 301 300
294 293 292 291 293 293 293 295 295 296 297 299 298 300 301 302 305 305 300 300 304 306 305 302 306 304 305 307 306 304 303 302 300 300 299 299 300 300
294 293 293 291 294 295 292 293 294 296 301 301 300 298 297 298 302 304 301 300 301 301 304 304 305 304 301 305 306 305 303 302 300 300 300 298 299 300
293 293 297 293 293 293 291 291 292 293 294 295 296 297 297 298 304 302 300 298 302 301 306 304 304 304 300 302 305 305 306 304 302 299 299 299 297 300
292 292 293 294 294 294 293 292 292 293 295 293 294 295 295 295 297 300 299 301 302 301 305 302 303 303 301 301 302 304 304 305 305 300 299 298 298 297
293 293 293 294 295 294 294 294 294 295 293 293 292 292 292 293 294 298 296 296 302 302 303 300 301 302 300 298 298 302 302 305 304 300 299 299 298 297
291 294 294 294 295 294 295 294 294 292 291 291 290 291 291 293 294 294 294 293 296 298 301 299 299 302 299 298 297 299 299 302 302 302 299 298 297 297
295 295 295 294 295 295 293 293 292 292 291 290 289 290 292 293 292 292 289 290 290 292 295 300 299 297 295 295 298 297 299 297 300 301 301 298 297 298
292 291 290 290 289 290 290 291 291 292 291 290 290 290 291 293 292 291 291 288 287 288 290 293 297 296 295 293 292 295 298 297 298 299 300 299 299 298
290 288 287 287 287 288 288 288 289 290 289 291 290 290 290 291 291 291 290 288 286 288 288 289 291 294 294 294 297 293 296 296 297 298 299 298 297 299
288 286 286 287 286 287 287 287 286 287 288 289 289 289 290 290 290 290 290 288 288 288 288 289 289 289 289 288 293 297 291 293 292 296 297 298 296 297
287 286 285 286 286 286 286 285 285 286 286 287 288 289 288 288 289 288 289 287 286 287 288 289 290 289 287 289 290 292 293 292 293 292 293 297 297 297
286 286 285 284 284 284 284 284 284 284 285 286 287 287 287 286 287 286 287 286 285 286 286 287 289 286 289 289 286 287 288 293 295 291 291 291 292 292
286 285 284 284 283 282 281 281 282 284 284 284 284 286 287 285 286 285 286 285 284 284 285 287 289 289 289 286 284 284 286 288 291 295 295 295 289 288
284 283 282 282 281 281 280 280 281 281 281 282 283 284 286 284 285 285 285 285 284 285 285 285 287 286 286 285 284 285 285 286 285 285 288 293 295 295
Wind_Speed
5 6 4 3 4 4 3 1 2 3 2 4 4 6 5 5 9 8 9 19 19 19 19 18 15 18 23 25 25 27 29 30 28 27 25 24 24 22
4 7 4 4 5 4 2 2 2 2 1 1 3 4 6 6 10 9 10 16 17 19 20 19 13 15 19 24 27 29 31 31 30 28 25 22 21 21
5 6 6 6 4 4 3 2 3 2 1 3 3 4 5 7 9 9 9 9 8 16 20 18 16 16 16 21 26 28 32 32 31 27 23 19 18 18
6 7 6 4 5 5 3 5 3 2 2 2 3 3 3 6 5 8 8 8 7 19 20 19 17 18 19 20 25 27 31 32 32 28 22 18 15 14
6 6 4 5 5 3 3 4 3 3 1 1 4 3 4 3 3 6 10 9 7 21 18 18 18 15 17 20 26 27 29 33 33 29 24 18 16 13
7 6 4 4 4 4 4 4 3 3 2 2 3 4 2 4 5 6 10 9 5 10 13 13 15 16 16 19 26 29 30 32 33 30 26 21 18 14
6 4 4 8 8 5 2 5 3 2 2 2 3 3 3 3 5 5 5 7 5 6 10 6 8 7 10 14 22 28 29 29 32 31 29 26 23 20
5 3 3 8 8 10 10 8 2 2 3 2 2 3 5 3 3 4 4 5 5 4 9 6 8 8 8 9 22 24 27 28 29 31 28 27 25 24
4 4 3 4 7 6 9 9 8 7 4 2 3 2 4 3 5 4 5 3 3 4 10 4 9 8 8 9 17 22 25 25 27 29 28 26 25 27
4 4 4 4 6 6 6 7 6 5 6 3 3 6 4 6 4 2 3 6 5 2 7 4 7 8 6 7 13 18 20 22 25 26 30 26 22 23
3 2 3 5 6 6 7 7 7 8 8 9 8 10 12 11 3 4 5 5 4 3 6 3 6 8 4 6 8 15 14 20 20 24 25 29 23 19
1 2 5 5 6 6 6 5 7 5 7 8 9 10 9 8 8 5 2 3 3 3 5 5 5 6 4 4 6 9 10 16 16 18 22 23 25 9
4 2 3 7 8 7 4 5 2 5 7 6 6 7 6 7 5 5 5 2 4 2 5 3 3 5 3 5 3 8 8 9 9 10 17 19 18 19
3 2 4 6 8 9 6 10 12 8 5 6 5 5 4 5 5 6 7 6 4 3 6 5 2 3 5 5 6 8 9 6 7 7 9 12 13 16
3 2 8 10 8 7 12 12 9 5 5 5 5 4 4 5 6 7 9 7 4 5 6 5 3 4 3 3 5 7 6 5 7 5 7 9 9 8
6 6 6 7 7 5 6 7 5 4 4 3 4 4 5 6 5 4 4 6 4 8 8 6 5 4 4 4 3 6 6 5 7 7 3 4 6 7
5 4 5 5 5 5 4 6 6 7 7 5 6 6 6 6 6 4 4 4 3 5 8 8 6 1 1 3 4 7 7 7 7 7 5 6 7 6
6 4 3 3 4 4 4 4 5 7 5 6 5 6 5 6 6 5 4 3 4 6 6 5 6 5 5 3 5 6 7 7 7 8 7 6 7 8
5 4 4 4 3 4 4 4 4 4 4 5 4 6 6 6 5 6 6 5 6 5 5 5 5 4 5 5 5 5 4 5 5 9 7 6 6 7
4 4 3 3 4 4 4 4 4 5 6 5 6 7 7 4 5 6 6 6 5 5 7 8 8 6 3 3 4 4 7 4 4 6 4 4 5 7
4 5 3 3 4 4 4 4 4 5 4 4 6 6 6 4 5 5 6 7 7 6 8 8 7 7 3 2 7 8 6 8 5 3 4 3 4 6
5 5 4 4 4 5 4 4 4 6 6 6 5 5 6 4 5 5 6 5 5 4 4 4 8 8 8 6 5 6 7 7 9 10 9 5 2 5
5 4 4 4 4 4 4 4 4 4 4 4 4 4 5 4 5 4 5 5 5 6 5 7 7 6 7 5 5 6 10 9 5 7 8 15 13 12
Wind_Direction
78 71 67 42 45 37 33 54 141 350 319 327 342 334 319 318 333 338 342 343 343 343 347 1 4 5 7 358 349 343 337 335 328 322 316 310 311 309
72 70 47 36 32 18 17 38 50 138 350 245 300 289 304 326 339 343 335 339 335 339 4 1 353 352 359 357 353 345 343 340 332 327 319 311 309 307
67 76 59 43 15 356 12 22 39 68 144 301 261 282 302 330 335 342 333 336 335 346 360 358 354 342 345 349 351 344 345 343 343 338 332 323 314 309
83 65 46 24 9 359 2 24 19 350 91 348 283 294 291 320 310 327 339 343 342 2 358 352 356 351 346 350 353 352 348 350 352 352 349 340 335 324
92 79 51 18 11 347 2 13 355 335 355 305 282 269 271 303 330 340 348 347 359 5 358 350 350 346 346 358 359 358 354 354 356 359 359 359 353 352
91 79 52 34 9 355 357 345 336 358 354 320 295 298 310 324 356 351 354 349 341 356 356 351 346 347 349 357 3 3 1 360 1 6 10 16 11 20
103 89 27 33 40 32 355 328 355 35 336 312 303 304 300 325 354 344 345 334 330 344 346 337 352 347 359 2 6 4 4 6 6 9 16 18 22 28
96 56 15 20 10 18 11 7 98 96 341 326 313 301 300 301 315 338 337 341 352 339 346 324 358 349 359 2 4 4 7 10 11 13 15 20 26 38
90 72 40 13 17 14 360 4 7 353 301 259 287 307 311 317 313 334 336 313 307 315 345 325 358 354 349 356 3 6 8 10 16 15 17 17 32 39
99 98 75 20 15 20 7 10 350 340 353 330 264 287 276 300 289 272 274 289 277 291 4 327 345 346 331 343 359 4 6 9 13 20 20 17 18 37
83 71 59 22 359 7 35 13 4 14 346 4 6 3 3 4 14 3 357 347 333 349 2 320 340 341 313 341 357 3 5 5 16 15 23 22 14 23
78 12 6 24 22 30 46 23 30 346 349 353 359 1 2 356 9 22 340 344 333 334 347 342 333 344 327 304 350 5 4 9 10 19 19 25 21 26
88 25 330 7 19 40 66 45 337 294 350 14 5 6 4 1 346 353 358 325 357 327 317 357 330 330 331 303 327 1 358 8 14 16 22 16 27 34
79 342 317 53 64 47 39 28 29 33 19 19 15 357 352 342 328 337 345 352 342 302 324 4 351 342 338 339 346 342 350 10 12 20 18 17 24 21
59 341 74 76 71 42 34 29 32 30 29 26 1 341 311 302 334 354 356 359 8 358 356 12 3 337 347 335 325 345 344 344 5 26 24 23 20 13
55 53 68 78 62 43 26 18 26 30 46 20 342 319 337 1 356 343 359 349 9 352 352 11 31 9 349 340 336 335 359 359 345 1 22 31 18 23
85 54 45 32 31 28 20 22 17 27 26 8 12 1 1 2 353 342 352 349 32 337 344 343 341 88 33 9 352 353 352 5 360 350 356 25 30 21
62 73 64 54 50 42 35 24 29 28 15 19 14 8 4 3 357 344 352 357 360 349 348 333 342 356 354 347 66 359 8 4 358 3 7 21 30 18
86 71 74 56 43 54 54 42 23 354 8 27 13 5 359 6 8 6 3 360 360 348 343 339 355 14 4 352 312 48 33 358 351 30 22 17 17 6
93 99 83 66 61 66 45 38 20 12 20 12 11 6 5 354 14 8 1 3 355 346 358 3 4 357 356 316 314 316 18 17 5 15 359 22 11 340
95 79 83 77 69 64 49 42 35 26 13 15 10 11 0 356 4 3 1 0 5 4 9 3 332 302 284 347 21 2 338 8 28 20 329 356 5 24
99 103 85 73 67 63 47 42 46 32 22 17 7 3 357 352 11 9 10 4 3 347 334 330 358 14 28 31 13 354 1 354 4 34 32 54 14 352
110 99 84 76 68 68 66 50 51 36 22 12 10 351 354 1 5 15 14 10 8 9 358 4 11 11 19 14 16 8 17 16 357 8 15 7 7 357